owner,sensor,date,latitude,longitude,vertical_datum,mass_concentration_of_oxygen_in_sea_water,qcFlag 
SCCF RECON,ioos:station:SCCF:13:1,2011-05-01T00:00:00Z,26.5255,-82.0032,1.97,6.43,1111122 
SCCF RECON,ioos:station:SCCF:13:1,2011-05-01T01:00:00Z,26.5255,-82.0032,2.05,6.34,1111122 
SCCF RECON,ioos:station:SCCF:13:1,2011-05-01T02:00:00Z,26.5255,-82.0032,2.17,6.13,1111122 
SCCF RECON,ioos:station:SCCF:13:1,2011-05-01T03:00:00Z,26.5255,-82.0032,2.24,5.72,1111122 
SCCF RECON,ioos:station:SCCF:13:1,2011-05-01T04:00:00Z,26.5255,-82.0032,2.287,5.61,1111122 
SCCF RECON,ioos:station:SCCF:13:1,2011-05-01T05:00:00Z,26.5255,-82.0032,2.32,5.81,1111122 
SCCF RECON,ioos:station:SCCF:13:1,2011-05-01T06:00:00Z,26.5255,-82.0032,2.31,5.74,1111122 
SCCF RECON,ioos:station:SCCF:13:1,2011-05-01T07:00:00Z,26.5255,-82.0032,2.259,5.55,1111122 
SCCF RECON,ioos:station:SCCF:13:1,2011-05-01T08:00:00Z,26.5255,-82.0032,2.169,5.7,1111122 
SCCF RECON,ioos:station:SCCF:13:1,2011-05-01T09:00:00Z,26.5255,-82.0032,2.14,5.39,1111122 
SCCF RECON,ioos:station:SCCF:13:1,2011-05-01T10:00:00Z,26.5255,-82.0032,2.1,5.17,1111122 
SCCF RECON,ioos:station:SCCF:13:1,2011-05-01T11:00:00Z,26.5255,-82.0032,2.06,5.12,1111122 
SCCF RECON,ioos:station:SCCF:13:1,2011-05-01T12:00:00Z,26.5255,-82.0032,2.1,5.32,1111122 
SCCF RECON,ioos:station:SCCF:13:1,2011-05-01T13:00:00Z,26.5255,-82.0032,2.23,5.18,1111122 
SCCF RECON,ioos:station:SCCF:13:1,2011-05-01T14:00:00Z,26.5255,-82.0032,2.337,5.15,1111122 
SCCF RECON,ioos:station:SCCF:13:1,2011-05-01T15:00:00Z,26.5255,-82.0032,2.392,5.65,1111122 
SCCF RECON,ioos:station:SCCF:13:1,2011-05-01T16:00:00Z,26.5255,-82.0032,2.459,6.11,1111122 
SCCF RECON,ioos:station:SCCF:13:1,2011-05-01T17:00:00Z,26.5255,-82.0032,2.486,6.22,1111122 
SCCF RECON,ioos:station:SCCF:13:1,2011-05-01T18:00:00Z,26.5255,-82.0032,2.43,6.5,1111122 
SCCF RECON,ioos:station:SCCF:13:1,2011-05-01T19:00:00Z,26.5255,-82.0032,2.317,6.5,1111122 
SCCF RECON,ioos:station:SCCF:13:1,2011-05-01T20:00:00Z,26.5255,-82.0032,2.231,6.67,1111122 
SCCF RECON,ioos:station:SCCF:13:1,2011-05-01T21:00:00Z,26.5255,-82.0032,2.161,6.83,1111122 
SCCF RECON,ioos:station:SCCF:13:1,2011-05-01T22:00:00Z,26.5255,-82.0032,2.11,7.14,1111122 
SCCF RECON,ioos:station:SCCF:13:1,2011-05-01T23:00:00Z,26.5255,-82.0032,2.045,7.07,1111122 
SCCF RECON,ioos:station:SCCF:13:1,2011-05-02T00:00:00Z,26.5255,-82.0032,1.998,6.93,1111122 
SCCF RECON,ioos:station:SCCF:13:1,2011-05-02T01:00:00Z,26.5255,-82.0032,2.03,6.71,1111122 
SCCF RECON,ioos:station:SCCF:13:1,2011-05-02T02:00:00Z,26.5255,-82.0032,2.15,6.54,1111122 
SCCF RECON,ioos:station:SCCF:13:1,2011-05-02T03:00:00Z,26.5255,-82.0032,2.258,6.31,1111122 
SCCF RECON,ioos:station:SCCF:13:1,2011-05-02T04:00:00Z,26.5255,-82.0032,2.35,6.33,1111122 
SCCF RECON,ioos:station:SCCF:13:1,2011-05-02T05:00:00Z,26.5255,-82.0032,2.39,6.39,1111122 
SCCF RECON,ioos:station:SCCF:13:1,2011-05-02T06:00:00Z,26.5255,-82.0032,2.36,6.39,1111122 
SCCF RECON,ioos:station:SCCF:13:1,2011-05-02T07:00:00Z,26.5255,-82.0032,2.328,6.21,1111122 
SCCF RECON,ioos:station:SCCF:13:1,2011-05-02T08:00:00Z,26.5255,-82.0032,2.289,5.73,1111122 
SCCF RECON,ioos:station:SCCF:13:1,2011-05-02T09:00:00Z,26.5255,-82.0032,2.22,6.03,1111122 
SCCF RECON,ioos:station:SCCF:13:1,2011-05-02T10:00:00Z,26.5255,-82.0032,2.17,5.75,1111122 
SCCF RECON,ioos:station:SCCF:13:1,2011-05-02T11:00:00Z,26.5255,-82.0032,2.149,5.22,1111122 
SCCF RECON,ioos:station:SCCF:13:1,2011-05-02T12:00:00Z,26.5255,-82.0032,2.19,5.49,1111122 
SCCF RECON,ioos:station:SCCF:13:1,2011-05-02T13:00:00Z,26.5255,-82.0032,2.305,5.06,1111122 
SCCF RECON,ioos:station:SCCF:13:1,2011-05-02T14:00:00Z,26.5255,-82.0032,2.41,5.49,1111122 
SCCF RECON,ioos:station:SCCF:13:1,2011-05-02T15:00:00Z,26.5255,-82.0032,2.486,5.88,1111122 
SCCF RECON,ioos:station:SCCF:13:1,2011-05-02T16:00:00Z,26.5255,-82.0032,2.539,6.3,1111122 
SCCF RECON,ioos:station:SCCF:13:1,2011-05-02T17:00:00Z,26.5255,-82.0032,2.559,6.38,1111122 
SCCF RECON,ioos:station:SCCF:13:1,2011-05-02T18:00:00Z,26.5255,-82.0032,2.55,6.74,1111122 
SCCF RECON,ioos:station:SCCF:13:1,2011-05-02T19:00:00Z,26.5255,-82.0032,2.462,6.72,1111122 
SCCF RECON,ioos:station:SCCF:13:1,2011-05-02T20:00:00Z,26.5255,-82.0032,2.36,6.65,1111122 
SCCF RECON,ioos:station:SCCF:13:1,2011-05-02T21:00:00Z,26.5255,-82.0032,2.26,6.89,1111122 
SCCF RECON,ioos:station:SCCF:13:1,2011-05-02T22:00:00Z,26.5255,-82.0032,2.183,6.97,1111122 
SCCF RECON,ioos:station:SCCF:13:1,2011-05-02T23:00:00Z,26.5255,-82.0032,2.11,6.86,1111122 
SCCF RECON,ioos:station:SCCF:13:1,2011-05-03T00:00:00Z,26.5255,-82.0032,2.045,6.83,1111122 
SCCF RECON,ioos:station:SCCF:13:1,2011-05-03T01:00:00Z,26.5255,-82.0032,2.01,6.6,1111122 
SCCF RECON,ioos:station:SCCF:13:1,2011-05-03T02:00:00Z,26.5255,-82.0032,2.077,6.43,1111122 
SCCF RECON,ioos:station:SCCF:13:1,2011-05-03T03:00:00Z,26.5255,-82.0032,2.188,6.22,1111122 
SCCF RECON,ioos:station:SCCF:13:1,2011-05-03T04:00:00Z,26.5255,-82.0032,2.28,5.84,1111122 
SCCF RECON,ioos:station:SCCF:13:1,2011-05-03T05:00:00Z,26.5255,-82.0032,2.3,5.65,1111122 
SCCF RECON,ioos:station:SCCF:13:1,2011-05-03T06:00:00Z,26.5255,-82.0032,2.29,5.87,1111122 
SCCF RECON,ioos:station:SCCF:13:1,2011-05-03T07:00:00Z,26.5255,-82.0032,2.303,6.03,1111122 
SCCF RECON,ioos:station:SCCF:13:1,2011-05-03T08:00:00Z,26.5255,-82.0032,2.3,5.94,1111122 
SCCF RECON,ioos:station:SCCF:13:1,2011-05-03T09:00:00Z,26.5255,-82.0032,2.23,5.69,1111122 
SCCF RECON,ioos:station:SCCF:13:1,2011-05-03T10:00:00Z,26.5255,-82.0032,2.17,5.64,1111122 
SCCF RECON,ioos:station:SCCF:13:1,2011-05-03T11:00:00Z,26.5255,-82.0032,2.18,5.4,1111122 
SCCF RECON,ioos:station:SCCF:13:1,2011-05-03T12:00:00Z,26.5255,-82.0032,2.24,4.9,1111122 
SCCF RECON,ioos:station:SCCF:13:1,2011-05-03T13:00:00Z,26.5255,-82.0032,2.3,4.69,1111122 
SCCF RECON,ioos:station:SCCF:13:1,2011-05-03T14:00:00Z,26.5255,-82.0032,2.367,5.01,1111122 
SCCF RECON,ioos:station:SCCF:13:1,2011-05-03T15:00:00Z,26.5255,-82.0032,2.459,6.2,1111122 
SCCF RECON,ioos:station:SCCF:13:1,2011-05-03T16:00:00Z,26.5255,-82.0032,2.53,6.63,1111122 
SCCF RECON,ioos:station:SCCF:13:1,2011-05-03T17:00:00Z,26.5255,-82.0032,2.571,6.21,1111122 
SCCF RECON,ioos:station:SCCF:13:1,2011-05-03T18:00:00Z,26.5255,-82.0032,2.59,7.0,1111122 
SCCF RECON,ioos:station:SCCF:13:1,2011-05-03T19:00:00Z,26.5255,-82.0032,2.56,7.19,1111122 
SCCF RECON,ioos:station:SCCF:13:1,2011-05-03T20:00:00Z,26.5255,-82.0032,2.45,6.9,1111122 
SCCF RECON,ioos:station:SCCF:13:1,2011-05-03T21:00:00Z,26.5255,-82.0032,2.34,7.02,1111122 
SCCF RECON,ioos:station:SCCF:13:1,2011-05-03T22:00:00Z,26.5255,-82.0032,2.251,7.02,1111122 
SCCF RECON,ioos:station:SCCF:13:1,2011-05-03T23:00:00Z,26.5255,-82.0032,2.18,6.9,1111122 
SCCF RECON,ioos:station:SCCF:13:1,2011-05-04T00:00:00Z,26.5255,-82.0032,2.11,6.75,1111122 
SCCF RECON,ioos:station:SCCF:13:1,2011-05-04T01:00:00Z,26.5255,-82.0032,2.05,6.51,1111122 
SCCF RECON,ioos:station:SCCF:13:1,2011-05-04T02:00:00Z,26.5255,-82.0032,2.04,6.31,1111122 
SCCF RECON,ioos:station:SCCF:13:1,2011-05-04T03:00:00Z,26.5255,-82.0032,2.149,6.15,1111122 
SCCF RECON,ioos:station:SCCF:13:1,2011-05-04T04:00:00Z,26.5255,-82.0032,2.27,5.55,1111122 
SCCF RECON,ioos:station:SCCF:13:1,2011-05-04T05:00:00Z,26.5255,-82.0032,2.356,5.49,1111122 
SCCF RECON,ioos:station:SCCF:13:1,2011-05-04T06:00:00Z,26.5255,-82.0032,2.417,5.82,1111122 
SCCF RECON,ioos:station:SCCF:13:1,2011-05-04T07:00:00Z,26.5255,-82.0032,2.441,6.08,1111122 
SCCF RECON,ioos:station:SCCF:13:1,2011-05-04T08:00:00Z,26.5255,-82.0032,2.43,6.09,1111122 
SCCF RECON,ioos:station:SCCF:13:1,2011-05-04T09:00:00Z,26.5255,-82.0032,2.38,5.96,1111122 
SCCF RECON,ioos:station:SCCF:13:1,2011-05-04T10:00:00Z,26.5255,-82.0032,2.34,5.92,1111122 
SCCF RECON,ioos:station:SCCF:13:1,2011-05-04T11:00:00Z,26.5255,-82.0032,2.32,5.66,1111122 
SCCF RECON,ioos:station:SCCF:13:1,2011-05-04T12:00:00Z,26.5255,-82.0032,2.3,5.5,1111122 
SCCF RECON,ioos:station:SCCF:13:1,2011-05-04T13:00:00Z,26.5255,-82.0032,2.292,5.24,1111122 
SCCF RECON,ioos:station:SCCF:13:1,2011-05-04T14:00:00Z,26.5255,-82.0032,2.373,5.13,1111122 
SCCF RECON,ioos:station:SCCF:13:1,2011-05-04T15:00:00Z,26.5255,-82.0032,2.47,4.75,1111122 
SCCF RECON,ioos:station:SCCF:13:1,2011-05-04T16:00:00Z,26.5255,-82.0032,2.54,5.78,1111122 
SCCF RECON,ioos:station:SCCF:13:1,2011-05-04T17:00:00Z,26.5255,-82.0032,2.579,6.58,1111122 
SCCF RECON,ioos:station:SCCF:13:1,2011-05-04T18:00:00Z,26.5255,-82.0032,2.592,6.48,1111122 
SCCF RECON,ioos:station:SCCF:13:1,2011-05-04T19:00:00Z,26.5255,-82.0032,2.578,6.81,1111122 
SCCF RECON,ioos:station:SCCF:13:1,2011-05-04T20:00:00Z,26.5255,-82.0032,2.499,6.81,1111122 
SCCF RECON,ioos:station:SCCF:13:1,2011-05-04T21:00:00Z,26.5255,-82.0032,2.395,6.9,1111122 
SCCF RECON,ioos:station:SCCF:13:1,2011-05-04T22:00:00Z,26.5255,-82.0032,2.296,6.72,1111122 
SCCF RECON,ioos:station:SCCF:13:1,2011-05-04T23:00:00Z,26.5255,-82.0032,2.215,6.58,1111122 
SCCF RECON,ioos:station:SCCF:13:1,2011-05-05T00:00:00Z,26.5255,-82.0032,2.13,6.53,1111122 
SCCF RECON,ioos:station:SCCF:13:1,2011-05-05T01:00:00Z,26.5255,-82.0032,2.056,6.12,1111122 
SCCF RECON,ioos:station:SCCF:13:1,2011-05-05T02:00:00Z,26.5255,-82.0032,2.0,5.98,1111122 
SCCF RECON,ioos:station:SCCF:13:1,2011-05-05T03:00:00Z,26.5255,-82.0032,2.0,5.75,1111122 
SCCF RECON,ioos:station:SCCF:13:1,2011-05-05T04:00:00Z,26.5255,-82.0032,2.1,5.64,1111122 
SCCF RECON,ioos:station:SCCF:13:1,2011-05-05T05:00:00Z,26.5255,-82.0032,2.21,5.56,1111122 
SCCF RECON,ioos:station:SCCF:13:1,2011-05-05T06:00:00Z,26.5255,-82.0032,2.29,5.05,1111122 
SCCF RECON,ioos:station:SCCF:13:1,2011-05-05T07:00:00Z,26.5255,-82.0032,2.33,5.24,1111122 
SCCF RECON,ioos:station:SCCF:13:1,2011-05-05T08:00:00Z,26.5255,-82.0032,2.341,5.35,1111122 
SCCF RECON,ioos:station:SCCF:13:1,2011-05-05T09:00:00Z,26.5255,-82.0032,2.306,5.26,1111122 
SCCF RECON,ioos:station:SCCF:13:1,2011-05-05T10:00:00Z,26.5255,-82.0032,2.25,5.26,1111122 
SCCF RECON,ioos:station:SCCF:13:1,2011-05-05T11:00:00Z,26.5255,-82.0032,2.211,5.21,1111122 
SCCF RECON,ioos:station:SCCF:13:1,2011-05-05T12:00:00Z,26.5255,-82.0032,2.18,4.78,1111122 
SCCF RECON,ioos:station:SCCF:13:1,2011-05-05T13:00:00Z,26.5255,-82.0032,2.16,4.76,1111122 
SCCF RECON,ioos:station:SCCF:13:1,2011-05-05T14:00:00Z,26.5255,-82.0032,2.196,5.37,1111122 
SCCF RECON,ioos:station:SCCF:13:1,2011-05-05T15:00:00Z,26.5255,-82.0032,2.288,5.15,1111122 
SCCF RECON,ioos:station:SCCF:13:1,2011-05-05T16:00:00Z,26.5255,-82.0032,2.384,5.26,1111122 
SCCF RECON,ioos:station:SCCF:13:1,2011-05-05T17:00:00Z,26.5255,-82.0032,2.451,6.03,1111122 
SCCF RECON,ioos:station:SCCF:13:1,2011-05-05T18:00:00Z,26.5255,-82.0032,2.5,6.48,1111122 
SCCF RECON,ioos:station:SCCF:13:1,2011-05-05T19:00:00Z,26.5255,-82.0032,2.524,7.02,1111122 
SCCF RECON,ioos:station:SCCF:13:1,2011-05-05T20:00:00Z,26.5255,-82.0032,2.51,7.2,1111122 
SCCF RECON,ioos:station:SCCF:13:1,2011-05-05T21:00:00Z,26.5255,-82.0032,2.414,7.13,1111122 
SCCF RECON,ioos:station:SCCF:13:1,2011-05-05T22:00:00Z,26.5255,-82.0032,2.32,7.1,1111122 
SCCF RECON,ioos:station:SCCF:13:1,2011-05-05T23:00:00Z,26.5255,-82.0032,2.26,6.6,1111122 
SCCF RECON,ioos:station:SCCF:13:1,2011-05-06T00:00:00Z,26.5255,-82.0032,2.17,6.27,1111122 
SCCF RECON,ioos:station:SCCF:13:1,2011-05-06T01:00:00Z,26.5255,-82.0032,2.08,6.19,1111122 
SCCF RECON,ioos:station:SCCF:13:1,2011-05-06T02:00:00Z,26.5255,-82.0032,2.01,6.04,1111122 
SCCF RECON,ioos:station:SCCF:13:1,2011-05-06T03:00:00Z,26.5255,-82.0032,1.98,5.86,1111122 
SCCF RECON,ioos:station:SCCF:13:1,2011-05-06T04:00:00Z,26.5255,-82.0032,2.03,5.73,1111122 
SCCF RECON,ioos:station:SCCF:13:1,2011-05-06T05:00:00Z,26.5255,-82.0032,2.15,5.63,1111122 
SCCF RECON,ioos:station:SCCF:13:1,2011-05-06T06:00:00Z,26.5255,-82.0032,2.23,5.29,1111122 
SCCF RECON,ioos:station:SCCF:13:1,2011-05-06T07:00:00Z,26.5255,-82.0032,2.29,5.44,1111122 
SCCF RECON,ioos:station:SCCF:13:1,2011-05-06T08:00:00Z,26.5255,-82.0032,2.335,5.37,1111122 
SCCF RECON,ioos:station:SCCF:13:1,2011-05-06T09:00:00Z,26.5255,-82.0032,2.36,5.43,1111122 
SCCF RECON,ioos:station:SCCF:13:1,2011-05-06T10:00:00Z,26.5255,-82.0032,2.35,5.25,1111122 
SCCF RECON,ioos:station:SCCF:13:1,2011-05-06T11:00:00Z,26.5255,-82.0032,2.32,5.24,1111122 
SCCF RECON,ioos:station:SCCF:13:1,2011-05-06T12:00:00Z,26.5255,-82.0032,2.294,5.16,1111122 
SCCF RECON,ioos:station:SCCF:13:1,2011-05-06T13:00:00Z,26.5255,-82.0032,2.297,4.99,1111122 
SCCF RECON,ioos:station:SCCF:13:1,2011-05-06T14:00:00Z,26.5255,-82.0032,2.33,4.7,1111122 
SCCF RECON,ioos:station:SCCF:13:1,2011-05-06T15:00:00Z,26.5255,-82.0032,2.4,5.83,1111122 
SCCF RECON,ioos:station:SCCF:13:1,2011-05-06T16:00:00Z,26.5255,-82.0032,2.47,6.39,1111122 
SCCF RECON,ioos:station:SCCF:13:1,2011-05-06T17:00:00Z,26.5255,-82.0032,2.541,6.4,1111122 
SCCF RECON,ioos:station:SCCF:13:1,2011-05-06T18:00:00Z,26.5255,-82.0032,2.59,6.28,1111122 
SCCF RECON,ioos:station:SCCF:13:1,2011-05-06T19:00:00Z,26.5255,-82.0032,2.629,6.82,1111122 
SCCF RECON,ioos:station:SCCF:13:1,2011-05-06T20:00:00Z,26.5255,-82.0032,2.62,7.0,1111122 
SCCF RECON,ioos:station:SCCF:13:1,2011-05-06T21:00:00Z,26.5255,-82.0032,2.56,6.91,1111122 
SCCF RECON,ioos:station:SCCF:13:1,2011-05-06T22:00:00Z,26.5255,-82.0032,2.46,6.79,1111122 
SCCF RECON,ioos:station:SCCF:13:1,2011-05-06T23:00:00Z,26.5255,-82.0032,2.366,6.55,1111122 
SCCF RECON,ioos:station:SCCF:13:1,2011-05-07T00:00:00Z,26.5255,-82.0032,2.27,6.36,1111122 
SCCF RECON,ioos:station:SCCF:13:1,2011-05-07T01:00:00Z,26.5255,-82.0032,2.181,6.32,1111122 
SCCF RECON,ioos:station:SCCF:13:1,2011-05-07T02:00:00Z,26.5255,-82.0032,2.109,6.31,1111122 
SCCF RECON,ioos:station:SCCF:13:1,2011-05-07T03:00:00Z,26.5255,-82.0032,2.04,6.1,1111122 
SCCF RECON,ioos:station:SCCF:13:1,2011-05-07T04:00:00Z,26.5255,-82.0032,2.02,5.86,1111122 
SCCF RECON,ioos:station:SCCF:13:1,2011-05-07T05:00:00Z,26.5255,-82.0032,2.1,5.68,1111122 
SCCF RECON,ioos:station:SCCF:13:1,2011-05-07T06:00:00Z,26.5255,-82.0032,2.22,5.6,1111122 
SCCF RECON,ioos:station:SCCF:13:1,2011-05-07T07:00:00Z,26.5255,-82.0032,2.288,5.06,1111122 
SCCF RECON,ioos:station:SCCF:13:1,2011-05-07T08:00:00Z,26.5255,-82.0032,2.335,5.27,1111122 
SCCF RECON,ioos:station:SCCF:13:1,2011-05-07T09:00:00Z,26.5255,-82.0032,2.37,5.4,1111122 
SCCF RECON,ioos:station:SCCF:13:1,2011-05-07T10:00:00Z,26.5255,-82.0032,2.39,5.46,1111122 
SCCF RECON,ioos:station:SCCF:13:1,2011-05-07T11:00:00Z,26.5255,-82.0032,2.39,5.31,1111122 
SCCF RECON,ioos:station:SCCF:13:1,2011-05-07T12:00:00Z,26.5255,-82.0032,2.38,5.1,1111122 
SCCF RECON,ioos:station:SCCF:13:1,2011-05-07T13:00:00Z,26.5255,-82.0032,2.36,5.19,1111122 
SCCF RECON,ioos:station:SCCF:13:1,2011-05-07T14:00:00Z,26.5255,-82.0032,2.348,5.29,1111122 
SCCF RECON,ioos:station:SCCF:13:1,2011-05-07T15:00:00Z,26.5255,-82.0032,2.377,5.17,1111122 
SCCF RECON,ioos:station:SCCF:13:1,2011-05-07T16:00:00Z,26.5255,-82.0032,2.44,4.68,1111122 
SCCF RECON,ioos:station:SCCF:13:1,2011-05-07T17:00:00Z,26.5255,-82.0032,2.499,5.61,1111122 
SCCF RECON,ioos:station:SCCF:13:1,2011-05-07T18:00:00Z,26.5255,-82.0032,2.55,6.46,1111122 
SCCF RECON,ioos:station:SCCF:13:1,2011-05-07T19:00:00Z,26.5255,-82.0032,2.591,6.72,1111122 
SCCF RECON,ioos:station:SCCF:13:1,2011-05-07T20:00:00Z,26.5255,-82.0032,2.603,6.86,1111122 
SCCF RECON,ioos:station:SCCF:13:1,2011-05-07T21:00:00Z,26.5255,-82.0032,2.57,7.1,1111122 
SCCF RECON,ioos:station:SCCF:13:1,2011-05-07T22:00:00Z,26.5255,-82.0032,2.498,7.02,1111122 
SCCF RECON,ioos:station:SCCF:13:1,2011-05-07T23:00:00Z,26.5255,-82.0032,2.42,6.95,1111122 
SCCF RECON,ioos:station:SCCF:13:1,2011-05-08T00:00:00Z,26.5255,-82.0032,2.34,6.65,1111122 
SCCF RECON,ioos:station:SCCF:13:1,2011-05-08T01:00:00Z,26.5255,-82.0032,2.261,6.28,1111122 
SCCF RECON,ioos:station:SCCF:13:1,2011-05-08T02:00:00Z,26.5255,-82.0032,2.18,6.42,1111122 
SCCF RECON,ioos:station:SCCF:13:1,2011-05-08T03:00:00Z,26.5255,-82.0032,2.1,6.09,1111122 
SCCF RECON,ioos:station:SCCF:13:1,2011-05-08T04:00:00Z,26.5255,-82.0032,2.042,6.02,1111122 
SCCF RECON,ioos:station:SCCF:13:1,2011-05-08T05:00:00Z,26.5255,-82.0032,2.056,5.76,1111122 
SCCF RECON,ioos:station:SCCF:13:1,2011-05-08T06:00:00Z,26.5255,-82.0032,2.14,5.66,1111122 
SCCF RECON,ioos:station:SCCF:13:1,2011-05-08T07:00:00Z,26.5255,-82.0032,2.229,5.61,1111122 
SCCF RECON,ioos:station:SCCF:13:1,2011-05-08T08:00:00Z,26.5255,-82.0032,2.29,5.0,1111122 
SCCF RECON,ioos:station:SCCF:13:1,2011-05-08T09:00:00Z,26.5255,-82.0032,2.34,5.22,1111122 
SCCF RECON,ioos:station:SCCF:13:1,2011-05-08T10:00:00Z,26.5255,-82.0032,2.37,5.44,1111122 
SCCF RECON,ioos:station:SCCF:13:1,2011-05-08T11:00:00Z,26.5255,-82.0032,2.38,5.4,1111122 
SCCF RECON,ioos:station:SCCF:13:1,2011-05-08T12:00:00Z,26.5255,-82.0032,2.36,5.26,1111122 
SCCF RECON,ioos:station:SCCF:13:1,2011-05-08T13:00:00Z,26.5255,-82.0032,2.329,5.08,1111122 
SCCF RECON,ioos:station:SCCF:13:1,2011-05-08T14:00:00Z,26.5255,-82.0032,2.342,5.21,1111122 
SCCF RECON,ioos:station:SCCF:13:1,2011-05-08T15:00:00Z,26.5255,-82.0032,2.35,5.26,1111122 
SCCF RECON,ioos:station:SCCF:13:1,2011-05-08T16:00:00Z,26.5255,-82.0032,2.364,5.57,1111122 
SCCF RECON,ioos:station:SCCF:13:1,2011-05-08T17:00:00Z,26.5255,-82.0032,2.409,5.56,1111122 
SCCF RECON,ioos:station:SCCF:13:1,2011-05-08T18:00:00Z,26.5255,-82.0032,2.46,6.35,1111122 
SCCF RECON,ioos:station:SCCF:13:1,2011-05-08T19:00:00Z,26.5255,-82.0032,2.506,6.84,1111122 
SCCF RECON,ioos:station:SCCF:13:1,2011-05-08T20:00:00Z,26.5255,-82.0032,2.55,6.77,1111122 
SCCF RECON,ioos:station:SCCF:13:1,2011-05-08T21:00:00Z,26.5255,-82.0032,2.56,6.52,1111122 
SCCF RECON,ioos:station:SCCF:13:1,2011-05-08T22:00:00Z,26.5255,-82.0032,2.53,6.66,1111122 
SCCF RECON,ioos:station:SCCF:13:1,2011-05-08T23:00:00Z,26.5255,-82.0032,2.45,6.74,1111122 
SCCF RECON,ioos:station:SCCF:13:1,2011-05-09T00:00:00Z,26.5255,-82.0032,2.38,6.42,1111122 
SCCF RECON,ioos:station:SCCF:13:1,2011-05-09T01:00:00Z,26.5255,-82.0032,2.31,6.15,1111122 
SCCF RECON,ioos:station:SCCF:13:1,2011-05-09T02:00:00Z,26.5255,-82.0032,2.23,6.07,1111122 
SCCF RECON,ioos:station:SCCF:13:1,2011-05-09T03:00:00Z,26.5255,-82.0032,2.15,6.23,1111122 
SCCF RECON,ioos:station:SCCF:13:1,2011-05-09T04:00:00Z,26.5255,-82.0032,2.076,6.02,1111122 
SCCF RECON,ioos:station:SCCF:13:1,2011-05-09T05:00:00Z,26.5255,-82.0032,2.03,5.89,1111122 
SCCF RECON,ioos:station:SCCF:13:1,2011-05-09T06:00:00Z,26.5255,-82.0032,2.06,5.65,1111122 
SCCF RECON,ioos:station:SCCF:13:1,2011-05-09T07:00:00Z,26.5255,-82.0032,2.16,5.52,1111122 
SCCF RECON,ioos:station:SCCF:13:1,2011-05-09T08:00:00Z,26.5255,-82.0032,2.25,5.25,1111122 
SCCF RECON,ioos:station:SCCF:13:1,2011-05-09T09:00:00Z,26.5255,-82.0032,2.31,4.74,1111122 
SCCF RECON,ioos:station:SCCF:13:1,2011-05-09T10:00:00Z,26.5255,-82.0032,2.37,5.33,1111122 
SCCF RECON,ioos:station:SCCF:13:1,2011-05-09T11:00:00Z,26.5255,-82.0032,2.404,5.42,1111122 
SCCF RECON,ioos:station:SCCF:13:1,2011-05-09T12:00:00Z,26.5255,-82.0032,2.4,5.28,1111122 
SCCF RECON,ioos:station:SCCF:13:1,2011-05-09T13:00:00Z,26.5255,-82.0032,2.359,5.31,1111122 
SCCF RECON,ioos:station:SCCF:13:1,2011-05-09T14:00:00Z,26.5255,-82.0032,2.328,5.28,1111122 
SCCF RECON,ioos:station:SCCF:13:1,2011-05-09T15:00:00Z,26.5255,-82.0032,2.312,5.14,1111122 
SCCF RECON,ioos:station:SCCF:13:1,2011-05-09T16:00:00Z,26.5255,-82.0032,2.309,5.35,1111122 
SCCF RECON,ioos:station:SCCF:13:1,2011-05-09T17:00:00Z,26.5255,-82.0032,2.31,5.49,1111122 
SCCF RECON,ioos:station:SCCF:13:1,2011-05-09T18:00:00Z,26.5255,-82.0032,2.34,5.57,1111122 
SCCF RECON,ioos:station:SCCF:13:1,2011-05-09T19:00:00Z,26.5255,-82.0032,2.38,5.54,1111122 
SCCF RECON,ioos:station:SCCF:13:1,2011-05-09T20:00:00Z,26.5255,-82.0032,2.42,6.23,1111122 
SCCF RECON,ioos:station:SCCF:13:1,2011-05-09T21:00:00Z,26.5255,-82.0032,2.454,6.68,1111122 
SCCF RECON,ioos:station:SCCF:13:1,2011-05-09T22:00:00Z,26.5255,-82.0032,2.48,6.75,1111122 
SCCF RECON,ioos:station:SCCF:13:1,2011-05-09T23:00:00Z,26.5255,-82.0032,2.46,6.3,1111122 
SCCF RECON,ioos:station:SCCF:13:1,2011-05-10T00:00:00Z,26.5255,-82.0032,2.4,6.15,1111122 
SCCF RECON,ioos:station:SCCF:13:1,2011-05-10T01:00:00Z,26.5255,-82.0032,2.35,6.04,1111122 
SCCF RECON,ioos:station:SCCF:13:1,2011-05-10T02:00:00Z,26.5255,-82.0032,2.28,5.79,1111122 
SCCF RECON,ioos:station:SCCF:13:1,2011-05-10T03:00:00Z,26.5255,-82.0032,2.21,5.86,1111122 
SCCF RECON,ioos:station:SCCF:13:1,2011-05-10T04:00:00Z,26.5255,-82.0032,2.13,5.87,1111122 
SCCF RECON,ioos:station:SCCF:13:1,2011-05-10T05:00:00Z,26.5255,-82.0032,2.06,5.88,1111122 
SCCF RECON,ioos:station:SCCF:13:1,2011-05-10T06:00:00Z,26.5255,-82.0032,2.02,5.77,1111122 
SCCF RECON,ioos:station:SCCF:13:1,2011-05-10T07:00:00Z,26.5255,-82.0032,2.05,5.61,1111122 
SCCF RECON,ioos:station:SCCF:13:1,2011-05-10T08:00:00Z,26.5255,-82.0032,2.13,5.49,1111122 
SCCF RECON,ioos:station:SCCF:13:1,2011-05-10T09:00:00Z,26.5255,-82.0032,2.22,5.05,1111122 
SCCF RECON,ioos:station:SCCF:13:1,2011-05-10T10:00:00Z,26.5255,-82.0032,2.28,4.67,1111122 
SCCF RECON,ioos:station:SCCF:13:1,2011-05-10T11:00:00Z,26.5255,-82.0032,2.34,5.25,1111122 
SCCF RECON,ioos:station:SCCF:13:1,2011-05-10T12:00:00Z,26.5255,-82.0032,2.37,5.24,1111122 
SCCF RECON,ioos:station:SCCF:13:1,2011-05-10T13:00:00Z,26.5255,-82.0032,2.38,5.23,1111122 
SCCF RECON,ioos:station:SCCF:13:1,2011-05-10T14:00:00Z,26.5255,-82.0032,2.37,5.21,1111122 
SCCF RECON,ioos:station:SCCF:13:1,2011-05-10T15:00:00Z,26.5255,-82.0032,2.35,5.39,1111122 
SCCF RECON,ioos:station:SCCF:13:1,2011-05-10T16:00:00Z,26.5255,-82.0032,2.32,5.56,1111122 
SCCF RECON,ioos:station:SCCF:13:1,2011-05-10T17:00:00Z,26.5255,-82.0032,2.28,5.61,1111122 
SCCF RECON,ioos:station:SCCF:13:1,2011-05-10T18:00:00Z,26.5255,-82.0032,2.28,5.83,1111122 
SCCF RECON,ioos:station:SCCF:13:1,2011-05-10T19:00:00Z,26.5255,-82.0032,2.315,5.73,1111122 
SCCF RECON,ioos:station:SCCF:13:1,2011-05-10T20:00:00Z,26.5255,-82.0032,2.35,5.43,1111122 
SCCF RECON,ioos:station:SCCF:13:1,2011-05-10T21:00:00Z,26.5255,-82.0032,2.406,6.07,1111122 
SCCF RECON,ioos:station:SCCF:13:1,2011-05-10T22:00:00Z,26.5255,-82.0032,2.442,6.39,1111122 
SCCF RECON,ioos:station:SCCF:13:1,2011-05-10T23:00:00Z,26.5255,-82.0032,2.46,6.38,1111122 
SCCF RECON,ioos:station:SCCF:13:1,2011-05-11T00:00:00Z,26.5255,-82.0032,2.464,5.91,1111122 
SCCF RECON,ioos:station:SCCF:13:1,2011-05-11T01:00:00Z,26.5255,-82.0032,2.45,5.83,1111122 
SCCF RECON,ioos:station:SCCF:13:1,2011-05-11T02:00:00Z,26.5255,-82.0032,2.38,5.75,1111122 
SCCF RECON,ioos:station:SCCF:13:1,2011-05-11T03:00:00Z,26.5255,-82.0032,2.31,5.43,1111122 
SCCF RECON,ioos:station:SCCF:13:1,2011-05-11T04:00:00Z,26.5255,-82.0032,2.24,5.4,1111122 
SCCF RECON,ioos:station:SCCF:13:1,2011-05-11T05:00:00Z,26.5255,-82.0032,2.17,5.59,1111122 
SCCF RECON,ioos:station:SCCF:13:1,2011-05-11T06:00:00Z,26.5255,-82.0032,2.1,5.56,1111122 
SCCF RECON,ioos:station:SCCF:13:1,2011-05-11T07:00:00Z,26.5255,-82.0032,2.064,5.58,1111122 
SCCF RECON,ioos:station:SCCF:13:1,2011-05-11T08:00:00Z,26.5255,-82.0032,2.11,5.4,1111122 
SCCF RECON,ioos:station:SCCF:13:1,2011-05-11T09:00:00Z,26.5255,-82.0032,2.226,5.25,1111122 
SCCF RECON,ioos:station:SCCF:13:1,2011-05-11T10:00:00Z,26.5255,-82.0032,2.3,4.39,1111122 
SCCF RECON,ioos:station:SCCF:13:1,2011-05-11T11:00:00Z,26.5255,-82.0032,2.36,4.91,1111122 
SCCF RECON,ioos:station:SCCF:13:1,2011-05-11T12:00:00Z,26.5255,-82.0032,2.43,4.88,1111122 
SCCF RECON,ioos:station:SCCF:13:1,2011-05-11T13:00:00Z,26.5255,-82.0032,2.48,4.85,1111122 
SCCF RECON,ioos:station:SCCF:13:1,2011-05-11T14:00:00Z,26.5255,-82.0032,2.507,5.08,1111122 
SCCF RECON,ioos:station:SCCF:13:1,2011-05-11T15:00:00Z,26.5255,-82.0032,2.5,5.15,1111122 
SCCF RECON,ioos:station:SCCF:13:1,2011-05-11T16:00:00Z,26.5255,-82.0032,2.44,5.45,1111122 
SCCF RECON,ioos:station:SCCF:13:1,2011-05-11T17:00:00Z,26.5255,-82.0032,2.373,5.52,1111122 
SCCF RECON,ioos:station:SCCF:13:1,2011-05-11T18:00:00Z,26.5255,-82.0032,2.321,5.43,1111122 
SCCF RECON,ioos:station:SCCF:13:1,2011-05-11T19:00:00Z,26.5255,-82.0032,2.28,5.83,1111122 
SCCF RECON,ioos:station:SCCF:13:1,2011-05-11T20:00:00Z,26.5255,-82.0032,2.28,5.89,1111122 
SCCF RECON,ioos:station:SCCF:13:1,2011-05-11T21:00:00Z,26.5255,-82.0032,2.356,5.9,1111122 